Regional Weather Roundup
Issued by NWS

Home | Current Version | Previous Version | Text Only | Print | Product List | Glossary On
Versions: 1 2 3 4 5 6 7 8 9 10 11 12 13 14 15 16 17 18 19 20 21 22 23 24 25 26 27 28 29 30 31 32 33 34 35 36 37 38 39 40 41 42 43 44 45 46 47 48 49 50
000
ASCA44 KEWX 302320
RWRMX

LATIN AMERICA AND CARIBBEAN REGIONAL WEATHER ROUNDUP
NATIONAL WEATHER SERVICE AUSTIN/SAN ANTONIO TX
600 PM CDT THU JUL 30 2015

NOTE: "FAIR" INDICATED FEW OR NO CLOUDS BELOW 12,000 FEET WITH NO
SIGNIFICANT WEATHER AND/OR OBSTRUCTIONS TO VISIBILITY.

BAJA CALIFORNIA

CITY           SKY/WX    TMP DP  RH WIND       PRES   REMARKS
LORETO         SUNNY     95  77  55 N12       29.84F HX 109
LA PAZ         SUNNY     97  50  20 N10       29.86  HX  94
MEXICALI       MOSUNNY  104  59  22 S9        29.83  HX 104
S.J. DEL CABO  SUNNY     91  70  49 SE12      29.88F HX  97
TIJUANA        MOSUNNY   77  63  61 W9        30.01F

NORTHWESTERN MEXICO

CITY           SKY/WX    TMP DP  RH WIND       PRES   REMARKS
CULIACAN       CLOUDY   100  79  50 W9        29.85  HX 119
DURANGO        PTSUNNY   82  50  32 N5        30.24
GUAYMAS        MOSUNNY   97  79  56 W20       29.76  HX 115
HERMOSILLO     MOSUNNY  106  64  26 CALM      29.87  HX 110
CD. JUAREZ     MOSUNNY   90  64  43 CALM      30.10  HX  91
LOS MOCHIS     PTSUNNY   97  64  34 W13       29.84F HX  99
OBREGON        SUNNY    104  66  29 W16       29.77  HX 109

NORTHEASTERN MEXICO

CITY           SKY/WX    TMP DP  RH WIND       PRES   REMARKS
CHIHUAHUA      PTSUNNY   73  61  64 SE13      30.18
MATAMOROS      MOSUNNY   93  75  55 E10       30.02  HX 104
MONCLOVA       MOSUNNY  100  61  27 NE8       29.95F HX 101
MONTERREY      PTSUNNY   95  59  30 E14       29.97F HX  94
NUEVO LAREDO   PTSUNNY  106  63  24 E7        29.95  HX 108
PIEDRAS NEGRAS SUNNY    102  68  32 SE9       29.99F HX 108
REYNOSA        PTSUNNY   93  66  40 S9G21     29.95  HX  96
SALTILLO       PTSUNNY   88  64  45 N14       30.21F
TORREON        MOSUNNY   95  50  21 NE12      30.07F HX  92
CD. VICTORIA   MOSUNNY   97  57  26 E9        29.97F HX  95

WESTERN MEXICO

CITY           SKY/WX    TMP DP  RH WIND       PRES   REMARKS
AGUASCALIENTES PTSUNNY   81  45  28 N12       30.24
COLIMA         CLOUDY    81  73  78 CALM      30.00F
DEL BAJIO      MOSUNNY   82  54  36 N5        30.25
GUADALAJARA    PTSUNNY   81  57  44 SW5       30.15
MANZANILLO       N/A    N/A N/A N/A MISG        N/A
MAZATLAN       PTSUNNY   90  79  70 W14       29.84S HX 105
P. VALLARTA    PTSUNNY   91  81  70 SW8       29.84S HX 110
URUAPAN        PTSUNNY   73  64  73 CALM      30.17F
ZACATECAS        N/A    N/A N/A N/A MISG        N/A

CENTRAL MEXICO

CITY           SKY/WX    TMP DP  RH WIND       PRES   REMARKS
CUERNAVACA     PTSUNNY   84  52  32 CALM      30.08F
MEXICO CITY    LGT RAIN  75  46  35 N16       30.27S
MORELIA        PTSUNNY   72  57  60 N13       30.22
POZA RICA      PTSUNNY   91  72  52 E12       30.00F HX  98
PUEBLA         PTSUNNY   75  41  29 S13       30.31S
QUERETARO      PTSUNNY   79  50  36 E17       30.27F
S. LUIS POTOSI PTSUNNY   81  45  28 E16       30.25F
TAMPICO        MOSUNNY   88  66  48 E16       29.99F HX  90
TOLUCA         PTSUNNY   73  52  46 SE10      30.36F

SOUTHERN MEXICO

CITY           SKY/WX    TMP DP  RH WIND       PRES   REMARKS
ACAPULCO       PTSUNNY   90  81  74 W10       29.81F HX 108
B. DE HUATULCO MOSUNNY   90  72  55 SW9       29.89  HX  96
OAXACA         PTSUNNY   79  46  31 N12       30.19S
P. ESCONDIDO   MOSUNNY   90  72  55 SW12      29.94F HX  96
VERACRUZ       MOSUNNY   88  75  66 E10       29.95F HX  97
ZIHUATANEJO    MOSUNNY   93  82  70 W6        29.83F HX 117

YUCATAN PENINSULA

CITY           SKY/WX    TMP DP  RH WIND       PRES   REMARKS
CAMPECHE       RAIN      75  72  88 S12G23    29.98R
CANCUN         MOSUNNY   88  77  70 E6        29.98F HX 100
CHETUMAL       MOSUNNY   90  77  66 E17       29.94  HX 102
CD. DEL CARMEN HVY RAIN  82  72  69 SE35      30.02
COZUMEL        MOSUNNY   84  75  74 SE8       29.98S HX  92
MERIDA         PTSUNNY   84  70  61 SE26G39   29.99R
MINATITLAN     SUNNY     86  77  74 N12G23    29.88  HX  97
TAPACHULA      PTSUNNY   88  79  74 SW12      29.81F HX 102
TUX. GUTIERREZ MOSUNNY   88  66  48 W12G24    29.89F HX  90
VILLAHERMOSA   MOSUNNY   93  66  40 N9        29.93R HX  96

CENTRAL AMERICA

CITY           SKY/WX    TMP DP  RH WIND       PRES   REMARKS
BELIZE CITY    MOSUNNY   88  79  74 E12       29.93S HX 102
MANAGUA        PTCLDY    88  70  55 E14       29.83R HX  92

CARIBBEAN

CITY           SKY/WX    TMP DP  RH WIND       PRES   REMARKS
ARUBA          PTCLDY    82  77  83 E18       29.86R HX  91
CURACAO        PTCLDY    82  75  78 E13       29.89S
KINGSTON       PTCLDY    86  77  74 SE25      29.92S HX  97
NASSAU         PTSUNNY   86  77  74 S7        30.01F HX  97
SAN JUAN       PTCLDY    82  75  78 E15       30.02R
SANTO DOMINGO  PTCLDY    84  73  70 SE10      29.94S HX  91
ST. CROIX      PTCLDY    82  73  74 NE13      30.01
ST. MAARTEN    PTCLDY    82  73  74 E13       30.00S
ST. THOMAS     PTCLDY    84  73  70 E15       30.00R HX  91

$$




USA.gov is the U.S. government's official web portal to all federal, state and local government web resources and services.